Theta_e
304 304 303 302 302 302 303 303 302 303 303 303 303 302 300 300 300 300 300 301 301 302 301 301 301 301 301 302 302 302 302 303 305 303 305 313 315 325 329 328 326 331 332
303 304 304 303 302 302 302 302 302 302 303 302 302 302 300 299 299 299 300 300 300 300 300 301 300 300 301 301 301 302 303 303 303 304 303 305 316 318 323 328 328 326 330
302 302 303 302 302 302 302 302 302 302 301 301 301 301 300 299 299 299 299 299 299 299 300 300 300 300 300 300 301 301 301 302 302 302 303 304 305 318 320 322 326 327 327
302 301 302 301 301 301 301 301 301 301 301 300 301 301 299 299 299 299 298 298 299 298 298 298 298 298 299 299 298 300 306 309 309 309 307 303 303 304 314 320 322 326 327
300 300 300 300 301 301 301 301 301 300 300 299 300 301 300 299 298 298 298 297 296 296 297 296 297 298 298 298 298 299 298 302 303 303 303 304 303 302 303 308 319 321 325
299 299 299 300 300 300 300 300 300 299 298 299 299 300 299 298 298 297 297 296 295 295 296 296 296 295 295 296 297 297 297 297 303 303 302 300 302 309 303 303 304 316 322
299 299 298 299 300 300 299 299 299 298 297 297 298 300 299 297 296 296 295 294 295 295 295 295 294 294 294 294 293 294 294 296 295 296 302 298 299 303 306 305 306 303 312
298 298 298 298 299 299 298 298 298 297 297 296 295 295 295 296 295 294 294 295 294 294 294 293 293 293 293 293 292 292 292 292 293 296 297 295 296 296 297 299 301 304 306
297 297 297 298 298 298 298 297 297 297 296 295 293 291 291 290 291 294 294 294 294 295 293 293 293 293 293 293 292 292 292 292 292 294 292 294 297 300 297 297 297 299 303
297 297 296 297 297 297 297 296 296 297 296 295 292 291 289 289 288 290 292 293 293 293 293 294 294 293 293 293 292 291 291 291 291 291 293 297 296 293 293 295 296 299 298
297 296 296 296 296 296 296 296 295 296 296 295 293 290 289 288 287 287 287 293 294 293 293 292 292 292 292 292 292 292 291 291 290 290 290 291 295 297 298 298 296 298 299
297 296 295 295 295 295 295 295 295 295 295 294 292 290 289 288 287 285 284 285 286 293 293 293 292 292 292 292 291 290 289 288 288 289 289 290 291 291 294 297 298 299 301
298 297 296 295 295 295 294 294 294 294 295 294 292 290 289 288 287 286 284 284 284 285 288 291 291 291 290 290 288 287 288 288 288 288 288 288 289 290 291 294 295 296 298
299 297 296 295 294 294 294 294 294 294 294 293 291 289 288 288 287 286 285 285 284 285 285 286 288 288 288 287 287 287 287 287 288 288 288 288 288 288 289 290 292 293 294
298 297 296 294 293 293 293 293 293 293 294 293 290 289 288 287 287 286 285 285 284 282 283 285 285 286 285 286 286 286 287 287 288 288 288 288 288 287 287 288 289 291 292
297 296 295 293 293 293 293 293 293 293 293 292 290 288 288 287 286 286 285 285 284 283 282 284 284 285 285 285 284 285 286 286 286 286 286 285 285 284 285 286 287 289 290
298 295 294 294 293 292 292 292 292 293 293 292 289 288 287 287 286 286 285 284 284 284 284 288 285 285 285 285 285 285 285 285 286 285 283 281 280 281 283 284 285 286 288
297 295 294 293 292 292 292 292 292 292 292 290 289 288 287 286 286 285 285 284 283 284 284 286 285 285 285 284 285 285 284 283 283 281 279 279 280 281 282 284 285 286 288
297 295 293 292 292 291 291 291 291 291 291 289 288 287 286 286 285 284 284 284 283 283 284 284 285 283 283 283 284 284 281 280 278 278 278 278 279 280 281 283 284 285 286
297 295 293 292 291 291 291 291 291 290 290 288 287 286 286 285 284 284 284 283 283 283 283 282 283 283 281 279 277 278 277 277 277 277 277 278 279 279 280 282 283 285 287
296 295 293 291 291 290 290 290 290 290 289 288 287 286 285 285 284 284 284 283 283 282 281 279 278 277 276 276 277 276 276 276 277 277 277 278 278 278 279 281 282 283 283
295 294 292 291 290 290 289 289 289 289 288 287 286 285 285 285 284 283 282 281 280 278 277 277 276 276 276 276 276 276 276 276 276 277 276 277 277 278 278 279 280 282 283
295 293 291 290 289 289 288 288 288 288 287 286 285 284 284 284 283 282 281 281 279 278 277 276 276 276 276 276 276 276 276 276 276 276 277 277 277 278 278 278 280 282 282
295 293 291 290 289 288 288 288 288 287 286 286 284 283 284 283 282 281 280 280 279 279 277 277 276 276 276 276 276 277 277 278 278 278 278 277 278 278 278 279 280 281 282
293 292 291 289 288 287 287 287 287 286 287 286 284 283 283 282 280 280 279 277 277 278 278 277 276 275 276 276 275 275 274 274 275 276 276 276 277 278 279 280 281 282 283
292 291 290 288 287 286 286 286 285 286 287 284 283 283 282 280 281 280 278 277 277 278 277 276 276 276 276 276 276 273 272 272 273 274 276 277 278 279 279 279 280 281 281
Wind_Speed
16 15 14 13 13 12 12 13 14 16 17 18 18 17 15 14 13 13 12 12 13 13 13 13 15 16 17 17 18 17 16 17 17 18 22 24 25 20 20 21 23 25 25
20 18 17 16 14 12 12 15 17 17 18 18 17 17 15 13 13 13 12 11 12 13 13 12 14 14 16 17 18 17 17 18 18 19 20 22 24 26 26 24 23 24 26
23 22 19 17 15 15 16 17 18 18 19 19 18 16 15 14 13 13 10 9 9 9 10 10 9 9 11 12 13 15 16 18 20 21 22 21 25 26 27 29 27 26 26
26 24 21 19 18 16 17 17 18 19 19 19 18 16 15 14 13 11 10 6 2 3 6 7 7 8 10 10 10 11 12 14 13 15 18 23 23 26 27 28 29 28 28
28 26 23 21 19 18 18 17 17 18 19 19 19 18 16 14 11 10 6 2 9 10 8 9 12 10 9 9 9 10 14 15 15 16 16 20 23 24 26 30 30 30 29
30 28 26 24 21 20 17 16 17 18 19 20 21 21 19 13 10 5 3 13 14 12 11 11 10 12 14 17 19 18 17 18 15 15 17 18 17 18 28 30 31 33 33
31 29 28 26 23 20 16 14 15 16 17 19 22 22 17 9 4 3 20 5 14 9 8 11 15 19 21 20 22 24 18 17 22 23 19 21 19 19 25 27 29 33 36
32 31 30 28 25 21 16 12 14 16 17 17 18 21 13 10 7 24 6 12 9 14 14 19 18 23 23 22 22 23 25 28 27 22 24 26 25 25 25 26 29 31 33
34 33 32 30 27 23 17 12 13 15 15 15 15 11 6 5 29 6 20 16 24 21 22 26 24 23 24 25 22 23 23 23 24 25 28 26 23 22 25 30 30 28 30
37 35 34 32 29 25 19 14 12 16 16 15 15 14 12 14 11 18 22 29 24 28 28 27 29 29 27 25 24 25 26 27 27 27 24 22 24 30 34 33 29 30 34
39 37 35 34 32 28 22 16 12 15 16 16 16 15 15 13 13 12 32 38 33 31 31 35 33 31 28 27 28 27 30 32 32 31 33 33 30 27 28 31 32 34 33
42 40 37 36 33 30 24 18 14 15 16 16 16 17 17 15 15 15 23 30 32 36 36 34 36 34 33 30 32 33 41 43 44 45 44 40 39 38 34 30 30 31 34
46 44 40 39 36 31 25 21 16 15 17 17 17 17 17 15 16 18 23 29 30 40 33 36 31 33 33 30 37 44 46 48 49 50 49 47 44 41 39 35 35 35 36
43 42 40 39 36 32 28 23 18 15 18 19 19 18 16 16 16 17 22 27 37 29 32 28 29 37 29 42 47 48 49 50 51 52 51 51 50 48 44 40 40 40 39
42 40 40 39 37 34 30 26 20 17 19 21 21 19 17 18 17 18 21 23 25 26 35 27 32 34 48 49 50 52 53 54 54 53 52 52 52 51 47 43 42 41 41
43 40 41 41 38 35 31 27 23 20 22 23 23 20 19 18 19 20 22 23 25 29 36 43 47 49 49 54 54 56 56 56 53 51 49 48 46 44 42 41 41 42 43
44 41 42 42 40 36 33 29 26 24 24 23 23 21 19 18 18 20 23 25 28 30 42 53 49 53 53 54 55 56 57 55 52 49 44 39 38 38 39 40 41 42 43
43 41 43 43 42 38 35 32 29 26 26 24 23 21 19 18 19 21 24 27 29 30 36 50 54 54 54 53 54 56 58 56 53 51 45 38 37 37 38 38 38 39 40
44 43 45 46 45 40 37 34 31 29 27 25 22 21 19 18 20 23 25 28 29 32 34 42 55 54 54 52 55 55 58 59 54 53 46 41 38 36 35 35 38 40 41
46 46 48 47 45 42 39 37 33 30 27 25 23 21 19 18 20 23 27 29 29 31 34 39 46 52 53 52 50 52 54 48 48 51 51 42 39 38 38 36 35 34 37
46 45 46 48 47 45 43 39 35 30 28 26 23 21 21 19 21 25 27 27 29 30 32 37 45 50 52 45 41 49 53 56 53 45 50 49 46 44 45 38 37 40 42
44 44 48 50 49 48 44 39 36 31 29 26 24 23 20 19 20 23 25 23 24 25 31 35 41 43 54 49 46 48 52 53 62 49 41 52 46 53 49 46 48 47 44
44 46 50 51 50 47 43 41 36 31 28 26 24 23 19 19 21 22 21 23 21 21 26 31 40 44 53 50 52 55 53 54 62 59 53 58 52 53 52 54 49 46 45
45 48 50 51 50 47 45 42 37 32 28 26 24 21 19 20 20 19 22 23 25 26 30 32 38 42 46 48 48 53 57 58 59 57 41 51 56 51 54 54 46 41 40
45 47 49 50 50 47 44 40 36 31 27 24 23 22 19 20 16 19 20 23 26 30 33 34 38 38 37 41 45 49 54 53 61 70 48 49 65 53 51 49 46 42 41
44 47 47 48 48 47 43 39 36 29 25 26 26 21 20 15 17 16 17 21 30 34 34 35 38 41 41 40 37 31 35 43 47 57 39 38 48 44 52 51 48 44 49
Wind_Direction
234 241 247 251 254 263 273 283 290 299 305 309 310 310 303 296 293 290 287 287 285 278 278 280 281 280 277 278 280 278 270 273 277 267 255 253 249 249 253 258 258 262 262
233 240 246 250 256 260 268 279 287 293 297 304 310 311 306 298 293 291 292 290 289 287 279 277 276 280 284 288 288 285 284 274 270 268 259 249 246 245 245 248 253 259 263
233 235 240 246 251 259 271 280 290 297 302 307 312 311 304 301 295 290 292 289 290 288 284 276 274 288 292 294 295 295 294 288 280 274 272 267 253 246 244 245 250 251 256
232 234 237 238 243 253 267 279 288 293 299 303 310 312 309 304 296 294 294 301 337 285 285 285 295 294 284 286 296 308 325 328 314 300 280 264 266 261 253 250 249 251 254
232 232 233 236 240 249 265 279 288 294 298 303 308 313 312 306 290 287 263 220 319 304 310 319 313 305 301 314 308 295 299 305 302 295 292 282 279 270 267 255 251 251 250
231 231 232 232 235 243 257 273 287 294 297 302 307 313 317 300 293 270 208 313 309 327 314 319 322 324 318 308 307 307 307 306 312 295 292 284 278 275 269 266 259 255 253
230 231 231 232 234 240 253 271 287 294 298 304 310 309 319 310 254 144 320 325 320 348 336 321 315 312 308 307 305 306 306 298 299 300 306 286 280 276 275 274 269 259 256
230 231 231 231 231 236 248 267 287 292 295 307 323 330 329 315 218 311 292 321 321 320 304 311 313 308 304 306 307 307 305 305 307 309 295 297 289 286 282 273 270 266 261
229 230 230 230 230 233 239 256 285 293 298 310 320 328 329 304 319 260 315 328 323 320 319 317 319 321 319 316 312 307 303 304 309 300 303 301 300 294 280 282 276 269 261
228 229 230 230 231 232 235 244 267 286 292 300 310 314 310 309 321 316 308 319 320 319 321 322 323 324 326 322 321 320 319 317 313 311 314 304 288 290 293 288 283 279 267
229 230 230 230 230 231 232 240 256 278 283 292 302 306 302 301 300 293 308 319 317 322 326 327 327 329 327 323 323 322 321 320 318 312 308 305 306 305 298 292 285 282 280
230 229 230 231 230 231 233 239 248 269 277 284 293 300 301 302 303 297 295 305 312 318 323 322 324 327 326 327 327 328 323 319 317 314 311 308 304 300 296 293 288 286 282
231 228 228 229 230 232 233 234 242 262 278 286 293 294 293 292 298 300 300 307 310 315 322 323 323 326 324 326 324 319 316 315 312 309 307 304 301 296 289 288 287 283 279
238 234 230 229 227 228 230 233 243 260 275 282 286 287 281 283 288 294 302 312 317 316 323 317 327 320 318 317 316 313 311 309 307 303 300 300 297 292 289 285 281 277 275
240 237 235 231 228 227 229 231 237 253 270 276 278 277 277 282 287 295 301 306 309 310 310 303 314 310 309 310 313 312 310 308 305 304 304 299 294 290 286 283 281 280 277
240 237 234 231 229 229 228 230 236 244 257 265 272 271 271 277 287 294 298 301 302 300 297 302 302 306 309 312 311 311 310 309 309 308 305 300 293 288 286 285 282 279 276
242 236 232 230 229 230 229 230 236 245 254 260 265 265 268 274 282 290 295 298 298 297 297 300 303 304 307 309 310 310 309 312 313 311 310 303 296 292 287 282 279 276 273
238 236 231 228 229 229 229 232 237 244 252 256 259 261 264 273 282 287 291 293 294 296 297 299 301 304 306 309 310 311 314 314 314 315 311 306 299 292 286 283 281 278 275
236 233 229 230 229 227 229 232 236 242 249 253 255 256 257 265 278 286 292 293 294 295 297 296 300 303 307 312 313 315 315 315 314 315 308 304 300 291 284 281 278 277 277
237 232 230 229 227 228 228 231 234 239 247 251 253 251 256 268 280 289 292 293 294 297 296 295 299 305 311 316 315 313 308 304 301 303 303 296 296 292 286 283 280 279 274
237 233 229 226 226 226 227 229 233 238 243 247 250 251 258 273 284 289 291 289 294 295 301 305 306 308 304 304 302 301 298 302 300 300 300 299 298 295 291 282 276 274 281
233 231 227 226 225 225 226 228 232 236 241 245 248 249 260 272 286 289 284 290 289 295 297 295 292 288 295 298 300 298 296 297 298 301 297 296 294 296 291 286 286 284 285
231 228 226 225 224 224 225 227 232 235 239 245 248 254 262 279 283 280 284 288 291 285 278 285 287 288 295 299 301 297 291 290 287 290 291 289 289 284 285 288 289 286 286
228 226 226 224 223 221 223 227 231 233 236 240 249 258 270 278 275 280 286 292 299 304 304 303 296 296 294 297 295 294 295 291 290 290 286 278 290 283 289 291 290 285 280
224 222 225 225 223 220 222 226 229 230 235 246 253 256 267 267 280 286 289 298 299 301 303 298 293 290 290 291 291 289 284 286 285 283 282 277 281 283 283 285 288 282 279
226 223 222 223 223 221 221 225 229 230 237 242 246 254 259 272 278 284 289 302 295 299 302 301 302 302 302 304 305 293 290 286 283 285 288 276 276 279 281 280 280 275 278